This is the latest recevied weather packets stored in our database for station/object JM1YTT-13. If no packets are shown the sender has not sent any weather packets the latest 1 day(s).
| Time | Temp. | Humidity | Pressure | Rain* | Wind** | Luminosity | Snow |
|---|---|---|---|---|---|---|---|
| 1778096590 | 16.67° C | 96% | 1013.9 hPa | 0 mm | - | - | - |
| 1778094790 | 17.22° C | 96% | 1014.2 hPa | 0 mm | - | - | - |
| 1778092990 | 17.22° C | 96% | 1014 hPa | 0 mm | - | - | - |
| 1778091190 | 17.22° C | 96% | 1014.3 hPa | 0 mm | - | - | - |
| 1778089390 | 17.22° C | 95% | 1014.3 hPa | 0 mm | - | - | - |
| 1778085790 | 17.22° C | 95% | 1014.4 hPa | 0 mm | - | - | - |
| 1778083990 | 16.67° C | 95% | 1015.1 hPa | 0 mm | - | - | - |
| 1778082190 | 16.67° C | 95% | 1015.1 hPa | 0 mm | - | - | - |
| 1778080390 | 16.67° C | 95% | 1015.8 hPa | 0 mm | - | - | - |
| 1778078590 | 16.67° C | 95% | 1016 hPa | 0 mm | - | - | - |
| 1778076790 | 16.67° C | 95% | 1016.1 hPa | 0 mm | - | - | - |
| 1778074990 | 16.67° C | 94% | 1016.5 hPa | 0 mm | - | - | - |
| 1778073190 | 16.67° C | 94% | 1016.5 hPa | 0 mm | - | - | - |
| 1778071390 | 16.67° C | 93% | 1016.8 hPa | 0 mm | - | - | - |
| 1778069590 | 16.67° C | 91% | 1016.9 hPa | 0 mm | - | - | - |
| 1778067790 | 17.22° C | 90% | 1017.1 hPa | 0 mm | - | - | - |
| 1778065990 | 17.78° C | 87% | 1017.1 hPa | 0 mm | - | - | - |
| 1778064190 | 17.78° C | 85% | 1017.2 hPa | 0 mm | - | - | - |
| 1778062390 | 18.33° C | 81% | 1017 hPa | 0 mm | - | - | - |
| 1778060590 | 18.89° C | 79% | 1017.1 hPa | 0 mm | - | - | - |
| 1778056990 | 19.44° C | 76% | 1017 hPa | 0 mm | - | - | - |
| 1778055190 | 20° C | 74% | 1017.2 hPa | 0 mm | - | - | - |
| 1778053390 | 20.56° C | 71% | 1017.3 hPa | 0 mm | - | - | - |
| 1778051590 | 20.56° C | 69% | 1016.7 hPa | 0 mm | - | - | - |
| 1778047990 | 21.11° C | 65% | 1017.1 hPa | 0 mm | - | - | - |
* Rain latest hour (hover to see other rain measurements)
** Current wind speed in m/s (hover to see current wind gust speed)